Weather History for Douglas, WY

Change the Weather History Date:

Thursday, January 3, 2013

  Actual Average Record
Temperature  
Mean Temperature 19 °F 24 °F  
Max Temperature 36 °F 39 °F 59 °F (2003)
Min Temperature 1 °F 11 °F -6 °F (2011)
Degree Days  
Heating Degree Days 46 40  
Month to date heating degree days 142 122  
Since 1 July heating degree days 2769 3211  
Cooling Degree Days 0 0  
Month to date cooling degree days 0 0  
Year to date cooling degree days 0 0  
Moisture  
Dew Point 2 °F    
Average Humidity 57    
Maximum Humidity 79    
Minimum Humidity 35    
Precipitation  
Precipitation 0.00 in 0.02 in 0.09 in (1971)
Month to date precipitation T 0.04  
Year to date precipitation T 0.04  
Sea Level Pressure  
Sea Level Pressure 30.41 in    
Wind  
Wind Speed 7 mph (NW)    
Max Wind Speed 16 mph    
Max Gust Speed 20 mph    
Visibility 10 miles    
Events      
T = Trace of Precipitation, MM = Missing Value Source: NWS Daily Summary

Daily Weather History Graph

Daily Weather History Graph

Search for Another Location

Airport:

Trip Planner

Search our weather history database for the weather conditions in past years. The results will help you decide how hot, cold, wet, or windy it might be!

Date:

Astronomy

Jan. 03, 2013 Rise Set
Actual Time 7:32 AM MST 4:40 PM MST
Civil Twilight 7:00 AM MST 5:12 PM MST
Nautical Twilight 6:24 AM MST 5:47 PM MST
Astronomical Twilight 5:50 AM MST 6:22 PM MST
Moon 11:28 PM MST (1/3) 10:35 AM MST (1/3)
Length of Visible Light 10h 12m
Length of Day
9h 08m
Waning Gibbous, 65% of the Moon is Illuminated
Jan 3
Waning Gibbous
Jan 4
Last Quarter
Jan 11
New
Jan 18
First Quarter
Jan 26
Full

Hourly Weather History & Observations

Time (MST) Temp. Windchill Dew Point Humidity Pressure Visibility Wind Dir Wind Speed Gust Speed Precip Events Conditions
12:53 AM 3.0 °F -9.3 °F -2.9 °F 76% 30.48 in 10.0 mi WNW 6.9 mph - N/A   Clear
1:53 AM 3.9 °F -9.4 °F -2.0 °F 76% 30.48 in 10.0 mi NNW 8.1 mph - N/A   Clear
2:53 AM 3.9 °F -6.9 °F -2.9 °F 73% 30.48 in 10.0 mi NW 5.8 mph - N/A   Clear
3:53 AM 3.9 °F -9.4 °F -4.0 °F 70% 30.47 in 10.0 mi NNW 8.1 mph - N/A   Clear
4:53 AM 1.9 °F -10.6 °F -5.1 °F 72% 30.47 in 10.0 mi NNW 6.9 mph - N/A   Clear
5:53 AM 3.0 °F -10.5 °F -5.1 °F 69% 30.48 in 10.0 mi NNW 8.1 mph - N/A   Clear
6:53 AM 5.0 °F -9.1 °F -4.0 °F 66% 30.47 in 10.0 mi NNW 9.2 mph - N/A   Clear
7:53 AM 10.0 °F -0.9 °F -0.9 °F 61% 30.46 in 10.0 mi NW 6.9 mph - N/A   Clear
8:53 AM 12.0 °F 0.5 °F -0.0 °F 59% 30.47 in 10.0 mi WNW 8.1 mph - N/A   Clear
9:53 AM 19.9 °F - 3.0 °F 48% 30.45 in 10.0 mi Calm Calm - N/A   Clear
10:53 AM 25.0 °F 16.3 °F 6.1 °F 45% 30.41 in 10.0 mi WNW 8.1 mph - N/A   Clear
11:53 AM 30.0 °F 20.5 °F 10.0 °F 43% 30.38 in 10.0 mi WNW 11.5 mph - N/A   Clear
12:53 PM 33.1 °F 23.0 °F 10.0 °F 38% 30.35 in 10.0 mi NW 15.0 mph - N/A   Clear
1:53 PM 35.1 °F 26.9 °F 10.9 °F 37% 30.32 in 10.0 mi NW 11.5 mph - N/A   Clear
2:53 PM 35.1 °F 26.9 °F 10.9 °F 37% 30.32 in 10.0 mi NW 11.5 mph - N/A   Clear
3:53 PM 32.0 °F 24.8 °F 12.0 °F 44% 30.35 in 10.0 mi NW 8.1 mph - N/A   Clear
4:53 PM 24.1 °F 14.4 °F 9.0 °F 53% 30.38 in 10.0 mi NW 9.2 mph - N/A   Clear
6:53 PM 19.0 °F 11.1 °F 5.0 °F 54% 30.41 in 10.0 mi NW 5.8 mph - N/A   Clear
7:53 PM 16.0 °F 8.8 °F 3.9 °F 59% 30.40 in 10.0 mi NNW 4.6 mph - N/A   Clear
8:53 PM 14.0 °F - 1.9 °F 59% 30.40 in 10.0 mi Calm Calm - N/A   Clear
9:53 PM 10.9 °F - 1.0 °F 64% 30.37 in 10.0 mi Calm Calm - N/A   Clear
10:53 PM 12.9 °F 6.9 °F 1.0 °F 59% 30.36 in 10.0 mi WNW 3.5 mph - N/A   Clear
11:53 PM 9.0 °F - -0.9 °F 64% 30.35 in 10.0 mi Calm Calm - N/A   Clear